Météo par heure à Jurkowko

Ce jour, 16 Juin, Mercredi

Heure Température Précipitation Vent Pression Humidité
00:00 +8°C° 0 mm 2 m/s 748 mmHg 93%
01:00 +7°C° 0 mm 2 m/s 748 mmHg 94%
02:00 +7°C° 0 mm 2 m/s 749 mmHg 94%
03:00 +7°C° 0 mm 2 m/s 749 mmHg 94%
04:00 +8°C° 0 mm 1 m/s 749 mmHg 94%
05:00 +11°C° 0 mm 1 m/s 749 mmHg 86%
06:00 +13°C° 0 mm 1 m/s 749 mmHg 78%
07:00 +15°C° 0 mm 1 m/s 749 mmHg 71%
08:00 +16°C° 0 mm 2 m/s 749 mmHg 65%
09:00 +17°C° 0 mm 2 m/s 749 mmHg 59%
10:00 +19°C° 0 mm 2 m/s 750 mmHg 53%
11:00 +19°C° 0 mm 2 m/s 750 mmHg 52%
12:00 +20°C° 0 mm 2 m/s 750 mmHg 51%
13:00 +21°C° 0 mm 2 m/s 750 mmHg 50%
14:00 +21°C° 0 mm 2 m/s 749 mmHg 51%
15:00 +21°C° 0 mm 2 m/s 749 mmHg 52%
16:00 +21°C° 0 mm 2 m/s 749 mmHg 53%
17:00 +19°C° 0 mm 2 m/s 749 mmHg 61%
18:00 +18°C° 0 mm 2 m/s 749 mmHg 69%
19:00 +17°C° 0 mm 2 m/s 749 mmHg 77%
20:00 +15°C° 0 mm 2 m/s 750 mmHg 80%
21:00 +14°C° 0 mm 2 m/s 750 mmHg 84%
22:00 +13°C° 0 mm 2 m/s 750 mmHg 87%
23:00 +12°C° 0 mm 2 m/s 750 mmHg 88%

Demain, 17 Juin, Jeudi

Heure Température Précipitation Vent Pression Humidité
00:00 +12°C° 0 mm 2 m/s 751 mmHg 89%
01:00 +10°C° 0 mm 2 m/s 751 mmHg 89%
02:00 +10°C° 0 mm 2 m/s 751 mmHg 89%
03:00 +10°C° 0 mm 2 m/s 751 mmHg 89%
04:00 +10°C° 0 mm 2 m/s 751 mmHg 88%
05:00 +13°C° 0 mm 2 m/s 751 mmHg 82%
06:00 +16°C° 0 mm 2 m/s 751 mmHg 77%
07:00 +18°C° 0 mm 2 m/s 752 mmHg 71%
08:00 +19°C° 0 mm 3 m/s 752 mmHg 66%
09:00 +21°C° 0 mm 3 m/s 752 mmHg 61%
10:00 +22°C° 0 mm 3 m/s 752 mmHg 56%
11:00 +24°C° 0 mm 3 m/s 752 mmHg 53%
12:00 +24°C° 0 mm 3 m/s 752 mmHg 51%
13:00 +25°C° 0 mm 4 m/s 752 mmHg 48%
14:00 +25°C° 0 mm 3 m/s 752 mmHg 50%
15:00 +25°C° 0 mm 3 m/s 751 mmHg 52%
16:00 +25°C° 0 mm 3 m/s 751 mmHg 54%
17:00 +24°C° 0 mm 2 m/s 751 mmHg 61%
18:00 +21°C° 0 mm 2 m/s 751 mmHg 69%
19:00 +20°C° 0 mm 2 m/s 751 mmHg 77%
20:00 +18°C° 0 mm 2 m/s 751 mmHg 79%
21:00 +17°C° 0 mm 3 m/s 752 mmHg 82%
22:00 +16°C° 0 mm 3 m/s 752 mmHg 84%
23:00 +14°C° 0 mm 3 m/s 752 mmHg 86%

Après-demain, 18 Juin, Vendredi

Heure Température Précipitation Vent Pression Humidité
00:00 +14°C° 0 mm 3 m/s 751 mmHg 87%
01:00 +13°C° 0 mm 3 m/s 751 mmHg 89%
02:00 +14°C° 0 mm 3 m/s 751 mmHg 89%
03:00 +14°C° 0 mm 3 m/s 751 mmHg 90%
04:00 +14°C° 0 mm 3 m/s 751 mmHg 90%
05:00 +17°C° 0 mm 3 m/s 751 mmHg 85%
06:00 +19°C° 0 mm 3 m/s 751 mmHg 79%
07:00 +21°C° 0 mm 4 m/s 751 mmHg 73%
08:00 +22°C° 0 mm 4 m/s 751 mmHg 69%
09:00 +25°C° 0 mm 4 m/s 751 mmHg 65%
10:00 +26°C° 0 mm 4 m/s 751 mmHg 62%
11:00 +27°C° 0 mm 4 m/s 751 mmHg 59%
12:00 +28°C° 0 mm 4 m/s 751 mmHg 57%
13:00 +28°C° 0 mm 4 m/s 751 mmHg 54%
14:00 +28°C° 0 mm 4 m/s 750 mmHg 56%
15:00 +28°C° 0 mm 4 m/s 750 mmHg 58%
16:00 +28°C° 0 mm 4 m/s 750 mmHg 60%
17:00 +26°C° 0 mm 4 m/s 750 mmHg 66%
18:00 +25°C° 0 mm 4 m/s 750 mmHg 72%
19:00 +22°C° 0 mm 3 m/s 750 mmHg 77%
20:00 +21°C° 0 mm 3 m/s 750 mmHg 80%
21:00 +20°C° 0 mm 3 m/s 750 mmHg 82%
22:00 +18°C° 0 mm 3 m/s 750 mmHg 84%
23:00 +18°C° 0 mm 3 m/s 750 mmHg 86%

19 Juin, Samedi

Heure Température Précipitation Vent Pression Humidité
00:00 +17°C° 0 mm 3 m/s 750 mmHg 88%
01:00 +16°C° 0 mm 3 m/s 750 mmHg 90%
02:00 +16°C° 0 mm 3 m/s 750 mmHg 91%
03:00 +16°C° 0 mm 3 m/s 750 mmHg 91%
04:00 +16°C° 0 mm 3 m/s 750 mmHg 91%
05:00 +18°C° 0 mm 3 m/s 750 mmHg 84%
06:00 +20°C° 0 mm 3 m/s 750 mmHg 78%
07:00 +22°C° 0 mm 4 m/s 750 mmHg 72%
08:00 +23°C° 0 mm 4 m/s 750 mmHg 68%
09:00 +26°C° 0 mm 4 m/s 750 mmHg 64%
10:00 +27°C° 0 mm 5 m/s 750 mmHg 61%
11:00 +28°C° 0 mm 5 m/s 749 mmHg 58%
12:00 +28°C° 0 mm 5 m/s 749 mmHg 55%
13:00 +29°C° 0 mm 5 m/s 749 mmHg 53%
14:00 +29°C° 0 mm 4 m/s 749 mmHg 55%
15:00 +29°C° 0 mm 4 m/s 748 mmHg 57%
16:00 +29°C° 0 mm 4 m/s 748 mmHg 59%
17:00 +27°C° 0 mm 4 m/s 748 mmHg 65%
18:00 +26°C° 0 mm 3 m/s 748 mmHg 71%
19:00 +25°C° 0 mm 3 m/s 748 mmHg 78%
20:00 +22°C° 0 mm 3 m/s 748 mmHg 81%
21:00 +21°C° 0 mm 3 m/s 748 mmHg 84%
22:00 +20°C° 0 mm 3 m/s 748 mmHg 87%
23:00 +20°C° 0 mm 3 m/s 748 mmHg 88%

20 Juin, Dimanche

Heure Température Précipitation Vent Pression Humidité
00:00 +19°C° 0 mm 3 m/s 748 mmHg 89%
01:00 +19°C° 0 mm 3 m/s 748 mmHg 90%
02:00 +19°C° 0 mm 3 m/s 748 mmHg 91%
03:00 +18°C° 0 mm 3 m/s 748 mmHg 92%
04:00 +18°C° 0 mm 3 m/s 748 mmHg 93%
05:00 +20°C° 0 mm 3 m/s 748 mmHg 86%
06:00 +21°C° 0 mm 3 m/s 748 mmHg 79%
07:00 +23°C° 0 mm 4 m/s 748 mmHg 73%
08:00 +25°C° 0 mm 4 m/s 748 mmHg 68%
09:00 +26°C° 0 mm 4 m/s 748 mmHg 64%
10:00 +27°C° 0 mm 5 m/s 748 mmHg 59%
11:00 +28°C° 0 mm 4 m/s 748 mmHg 57%
12:00 +28°C° 0 mm 4 m/s 747 mmHg 55%
13:00 +29°C° 0 mm 4 m/s 747 mmHg 52%
14:00 +29°C° 0 mm 4 m/s 747 mmHg 54%
15:00 +29°C° 0 mm 3 m/s 747 mmHg 55%
16:00 +29°C° 0 mm 3 m/s 747 mmHg 56%
17:00 +27°C° 0 mm 3 m/s 746 mmHg 63%
18:00 +26°C° 0 mm 3 m/s 746 mmHg 69%
19:00 +25°C° 0 mm 3 m/s 746 mmHg 76%
20:00 +22°C° 0 mm 3 m/s 746 mmHg 79%
21:00 +21°C° 0 mm 3 m/s 746 mmHg 82%
22:00 +20°C° 0 mm 3 m/s 746 mmHg 86%
23:00 +20°C° 0 mm 3 m/s 746 mmHg 87%

21 Juin, Lundi

Heure Température Précipitation Vent Pression Humidité
00:00 +20°C° 0 mm 3 m/s 746 mmHg 87%
01:00 +20°C° 0 mm 2 m/s 746 mmHg 88%
02:00 +20°C° 0 mm 3 m/s 746 mmHg 87%
03:00 +20°C° 0 mm 3 m/s 746 mmHg 86%
04:00 +20°C° 0 mm 3 m/s 746 mmHg 85%
05:00 +21°C° 0 mm 3 m/s 746 mmHg 81%
06:00 +24°C° 0 mm 3 m/s 746 mmHg 77%
07:00 +25°C° 0 mm 4 m/s 746 mmHg 73%
08:00 +26°C° 0 mm 4 m/s 746 mmHg 69%
09:00 +27°C° 0 mm 4 m/s 746 mmHg 65%
10:00 +28°C° 0 mm 5 m/s 746 mmHg 60%
11:00 +29°C° 0 mm 5 m/s 746 mmHg 58%
12:00 +29°C° 0 mm 5 m/s 746 mmHg 55%
13:00 +30°C° 0 mm 5 m/s 745 mmHg 53%
14:00 +30°C° 0 mm 4 m/s 745 mmHg 55%
15:00 +30°C° 0 mm 4 m/s 745 mmHg 57%
16:00 +30°C° 0 mm 3 m/s 745 mmHg 59%
17:00 +28°C° 0.1 mm 3 m/s 745 mmHg 66%
18:00 +27°C° 0.1 mm 3 m/s 745 mmHg 73%
19:00 +25°C° 0.1 mm 3 m/s 745 mmHg 80%
20:00 +24°C° 0 mm 3 m/s 745 mmHg 82%
21:00 +22°C° 0 mm 3 m/s 745 mmHg 84%
22:00 +21°C° 0 mm 3 m/s 745 mmHg 87%
23:00 +20°C° 0 mm 3 m/s 744 mmHg 89%
Voir plus

Nous avons besoin de votre consentement

Meteoprog et ses fournisseurs de services peuvent stocker et accéder à des données personnelles telles que des cookies, des identifiants d'appareils ou d'autres technologies similaires sur votre appareil et traiter ces données pour personnaliser le contenu et les publicités, ainsi que pour fournir des fonctionnalités de médias sociaux et analyser le trafic.

  • Stocker et/ou accéder à des informations sur votre appareil

    Des cookies, des identifiants d'appareils ou d'autres informations peuvent être stockés ou accessibles sur votre appareil aux fins indiquées ci-dessus.

  • Annonces et contenus personnalisés, mesure des annonces et des contenus, connaissance de l'audience et développement de produits

    Les annonces et le contenu peuvent être personnalisés en fonction d'un profil. D'autres données peuvent être ajoutées pour mieux personnaliser les annonces et le contenu. Les performances des publicités et du contenu peuvent être mesurées. Il est possible d'obtenir des informations sur le public qui a vu les publicités et le contenu. Ces données peuvent être utilisées pour développer ou améliorer l'expérience de l'utilisateur, les systèmes et les logiciels.

En cliquant sur "J'accepte", vous autorisez l'utilisation de cookies, des identifiants d'appareils, des balises web ou d'autres technologies similaires. Vos paramètres peuvent être modifiés dans le navigateur de votre appareil.

Dans certains cas, des intérêts légitimes peuvent être invoqués plutôt qu'un consentement. Vous pouvez en savoir plus à ce sujet dans notre Politique de confidentialité et de cookies.